When you browse on this site, cookies collect data to enhance your experience and personalize the content and advertising you see.
Visit our Privacy Policy to learn more. By continuing to use the site, you agree to this use of cookies and data.
  • în România
  • Lista ţărilor
  • Pe 7 zile
  • Temperatura apei
  • Hartă satelitară
  • Meteo pe hartă
  • Widget-uri
  • user-avatar
    Intrare

    Meteo pe oră la Les Ulis

    Astăzi, 19 Iunie, Miercuri

    Timp Temperatura Precipitaţii Vânt Presiune Umiditate
    00:00 +21°C° 0 mm 2 m/s 742 mmHg 85%
    01:00 +20°C° 0 mm 3 m/s 742 mmHg 86%
    02:00 +20°C° 0 mm 3 m/s 742 mmHg 87%
    03:00 +19°C° 0 mm 3 m/s 742 mmHg 88%
    04:00 +19°C° 0.1 mm 3 m/s 742 mmHg 82%
    05:00 +20°C° 0.1 mm 2 m/s 742 mmHg 76%
    06:00 +20°C° 0.1 mm 2 m/s 742 mmHg 70%
    07:00 +21°C° 0 mm 3 m/s 743 mmHg 68%
    08:00 +22°C° 0 mm 4 m/s 743 mmHg 66%
    09:00 +23°C° 0 mm 6 m/s 743 mmHg 64%
    10:00 +23°C° 0 mm 6 m/s 744 mmHg 62%
    11:00 +24°C° 0 mm 6 m/s 744 mmHg 61%
    12:00 +24°C° 0 mm 6 m/s 744 mmHg 60%
    13:00 +24°C° 0.5 mm 6 m/s 744 mmHg 62%
    14:00 +23°C° 0.5 mm 6 m/s 744 mmHg 64%
    15:00 +23°C° 0.5 mm 6 m/s 744 mmHg 66%
    16:00 +22°C° 0.5 mm 6 m/s 744 mmHg 69%
    17:00 +22°C° 0.5 mm 5 m/s 744 mmHg 72%
    18:00 +21°C° 0.5 mm 4 m/s 744 mmHg 75%
    19:00 +20°C° 0.5 mm 4 m/s 745 mmHg 79%
    20:00 +19°C° 0.5 mm 3 m/s 745 mmHg 82%
    21:00 +18°C° 0.5 mm 3 m/s 745 mmHg 86%
    22:00 +17°C° 0.2 mm 2 m/s 745 mmHg 86%
    23:00 +17°C° 0.2 mm 2 m/s 745 mmHg 86%

    Mâine, 20 Iunie, Joi

    Timp Temperatura Precipitaţii Vânt Presiune Umiditate
    00:00 +16°C° 0.2 mm 1 m/s 745 mmHg 86%
    01:00 +16°C° 0 mm 2 m/s 745 mmHg 86%
    02:00 +16°C° 0 mm 2 m/s 745 mmHg 86%
    03:00 +16°C° 0 mm 2 m/s 745 mmHg 86%
    04:00 +16°C° 0.2 mm 2 m/s 746 mmHg 87%
    05:00 +16°C° 0.2 mm 2 m/s 746 mmHg 87%
    06:00 +16°C° 0.2 mm 2 m/s 746 mmHg 88%
    07:00 +16°C° 0.3 mm 2 m/s 747 mmHg 87%
    08:00 +16°C° 0.3 mm 2 m/s 747 mmHg 86%
    09:00 +16°C° 0.3 mm 2 m/s 748 mmHg 85%
    10:00 +17°C° 0.1 mm 2 m/s 748 mmHg 79%
    11:00 +18°C° 0.1 mm 2 m/s 748 mmHg 73%
    12:00 +19°C° 0.1 mm 2 m/s 748 mmHg 67%
    13:00 +20°C° 0.1 mm 3 m/s 748 mmHg 62%
    14:00 +21°C° 0.1 mm 3 m/s 748 mmHg 58%
    15:00 +21°C° 0.1 mm 4 m/s 748 mmHg 53%
    16:00 +21°C° 0 mm 3 m/s 748 mmHg 55%
    17:00 +20°C° 0 mm 3 m/s 748 mmHg 57%
    18:00 +20°C° 0 mm 2 m/s 749 mmHg 59%
    19:00 +19°C° 0 mm 2 m/s 749 mmHg 64%
    20:00 +17°C° 0 mm 2 m/s 749 mmHg 68%
    21:00 +16°C° 0 mm 2 m/s 749 mmHg 72%
    22:00 +15°C° 0 mm 2 m/s 750 mmHg 74%
    23:00 +15°C° 0 mm 2 m/s 750 mmHg 75%

    Poimâine, 21 Iunie, Vineri

    Timp Temperatura Precipitaţii Vânt Presiune Umiditate
    00:00 +15°C° 0 mm 1 m/s 750 mmHg 77%
    01:00 +14°C° 0 mm 1 m/s 750 mmHg 78%
    02:00 +14°C° 0 mm 1 m/s 750 mmHg 80%
    03:00 +13°C° 0 mm 1 m/s 750 mmHg 81%
    04:00 +14°C° 0 mm 1 m/s 750 mmHg 79%
    05:00 +14°C° 0 mm 1 m/s 751 mmHg 77%
    06:00 +15°C° 0 mm 1 m/s 751 mmHg 75%
    07:00 +16°C° 0 mm 1 m/s 751 mmHg 69%
    08:00 +18°C° 0 mm 1 m/s 751 mmHg 64%
    09:00 +20°C° 0 mm 1 m/s 751 mmHg 58%
    10:00 +20°C° 0.1 mm 1 m/s 751 mmHg 55%
    11:00 +21°C° 0.1 mm 1 m/s 751 mmHg 53%
    12:00 +22°C° 0.1 mm 1 m/s 751 mmHg 50%
    13:00 +21°C° 0 mm 2 m/s 751 mmHg 50%
    14:00 +21°C° 0 mm 2 m/s 751 mmHg 50%
    15:00 +21°C° 0 mm 2 m/s 751 mmHg 50%
    16:00 +20°C° 0 mm 3 m/s 751 mmHg 54%
    17:00 +20°C° 0 mm 3 m/s 751 mmHg 57%
    18:00 +19°C° 0 mm 3 m/s 751 mmHg 61%
    19:00 +18°C° 0 mm 3 m/s 751 mmHg 66%
    20:00 +17°C° 0 mm 3 m/s 751 mmHg 71%
    21:00 +16°C° 0 mm 3 m/s 752 mmHg 76%
    22:00 +14°C° 0 mm 3 m/s 752 mmHg 75%
    23:00 +14°C° 0 mm 3 m/s 752 mmHg 74%

    22 Iunie, Sâmbătă

    Timp Temperatura Precipitaţii Vânt Presiune Umiditate
    00:00 +14°C° 0 mm 2 m/s 752 mmHg 73%
    01:00 +13°C° 0 mm 2 m/s 752 mmHg 70%
    02:00 +12°C° 0 mm 2 m/s 752 mmHg 71%
    03:00 +12°C° 0 mm 2 m/s 752 mmHg 71%
    04:00 +12°C° 0 mm 2 m/s 752 mmHg 70%
    05:00 +13°C° 0 mm 2 m/s 752 mmHg 69%
    06:00 +13°C° 0 mm 2 m/s 752 mmHg 68%
    07:00 +15°C° 0 mm 2 m/s 752 mmHg 61%
    08:00 +16°C° 0 mm 2 m/s 752 mmHg 55%
    09:00 +18°C° 0 mm 2 m/s 752 mmHg 48%
    10:00 +19°C° 0 mm 2 m/s 752 mmHg 45%
    11:00 +22°C° 0 mm 1 m/s 752 mmHg 42%
    12:00 +23°C° 0 mm 1 m/s 751 mmHg 39%
    13:00 +23°C° 0 mm 2 m/s 751 mmHg 39%
    14:00 +24°C° 0 mm 2 m/s 751 mmHg 39%
    15:00 +24°C° 0 mm 2 m/s 750 mmHg 39%
    16:00 +23°C° 0 mm 2 m/s 750 mmHg 45%
    17:00 +23°C° 0 mm 2 m/s 750 mmHg 51%
    18:00 +21°C° 0 mm 2 m/s 750 mmHg 57%
    19:00 +20°C° 0 mm 2 m/s 750 mmHg 61%
    20:00 +18°C° 0 mm 2 m/s 751 mmHg 65%
    21:00 +17°C° 0 mm 2 m/s 751 mmHg 69%
    22:00 +17°C° 0 mm 2 m/s 751 mmHg 73%
    23:00 +16°C° 0 mm 2 m/s 750 mmHg 77%

    23 Iunie, Duminică

    Timp Temperatura Precipitaţii Vânt Presiune Umiditate
    00:00 +15°C° 0 mm 2 m/s 750 mmHg 81%
    01:00 +15°C° 0 mm 2 m/s 750 mmHg 82%
    02:00 +14°C° 0 mm 2 m/s 750 mmHg 83%
    03:00 +13°C° 0 mm 3 m/s 750 mmHg 83%
    04:00 +13°C° 0 mm 3 m/s 750 mmHg 82%
    05:00 +14°C° 0 mm 3 m/s 750 mmHg 80%
    06:00 +14°C° 0 mm 4 m/s 750 mmHg 78%
    07:00 +17°C° 0 mm 4 m/s 750 mmHg 74%
    08:00 +18°C° 0 mm 4 m/s 750 mmHg 70%
    09:00 +20°C° 0 mm 5 m/s 750 mmHg 66%
    10:00 +21°C° 0 mm 5 m/s 750 mmHg 63%
    11:00 +22°C° 0 mm 5 m/s 749 mmHg 60%
    12:00 +25°C° 0 mm 5 m/s 749 mmHg 58%
    13:00 +25°C° 0 mm 5 m/s 749 mmHg 58%
    14:00 +25°C° 0 mm 5 m/s 748 mmHg 59%
    15:00 +25°C° 0 mm 5 m/s 748 mmHg 60%
    16:00 +25°C° 0 mm 5 m/s 748 mmHg 63%
    17:00 +25°C° 0 mm 5 m/s 748 mmHg 66%
    18:00 +23°C° 0 mm 5 m/s 747 mmHg 70%
    19:00 +22°C° 0 mm 5 m/s 748 mmHg 73%
    20:00 +21°C° 0 mm 5 m/s 748 mmHg 76%
    21:00 +21°C° 0 mm 5 m/s 748 mmHg 79%
    22:00 +20°C° 0 mm 5 m/s 748 mmHg 80%
    23:00 +20°C° 0 mm 4 m/s 748 mmHg 82%

    24 Iunie, Luni

    Timp Temperatura Precipitaţii Vânt Presiune Umiditate
    00:00 +19°C° 0 mm 4 m/s 747 mmHg 83%
    01:00 +19°C° 0 mm 4 m/s 747 mmHg 83%
    02:00 +19°C° 0 mm 4 m/s 747 mmHg 82%
    03:00 +19°C° 0 mm 3 m/s 747 mmHg 81%
    04:00 +19°C° 0 mm 3 m/s 747 mmHg 79%
    05:00 +19°C° 0 mm 3 m/s 747 mmHg 77%
    06:00 +20°C° 0 mm 3 m/s 747 mmHg 74%
    07:00 +22°C° 0 mm 3 m/s 747 mmHg 71%
    08:00 +24°C° 0 mm 3 m/s 747 mmHg 67%
    09:00 +26°C° 0 mm 3 m/s 747 mmHg 64%
    10:00 +28°C° 0 mm 3 m/s 747 mmHg 61%
    11:00 +29°C° 0 mm 3 m/s 747 mmHg 58%
    12:00 +32°C° 0 mm 4 m/s 747 mmHg 54%
    13:00 +33°C° 0 mm 4 m/s 747 mmHg 54%
    14:00 +33°C° 0 mm 4 m/s 747 mmHg 53%
    15:00 +33°C° 0 mm 3 m/s 747 mmHg 52%
    16:00 +33°C° 0 mm 3 m/s 747 mmHg 54%
    17:00 +32°C° 0 mm 2 m/s 747 mmHg 56%
    18:00 +31°C° 0 mm 2 m/s 747 mmHg 58%
    19:00 +30°C° 0 mm 1 m/s 747 mmHg 63%
    20:00 +28°C° 0 mm 1 m/s 747 mmHg 68%
    21:00 +26°C° 0 mm 1 m/s 748 mmHg 74%
    22:00 +26°C° 0 mm 1 m/s 748 mmHg 76%
    23:00 +25°C° 0 mm 1 m/s 748 mmHg 79%
    Arată mai mult